Tracking 22881 objects as of 20-Apr-2021
HD Live streaming from Space Station
objects crossing your sky now

STARLINK-1992

Track STARLINK-1992 now!
10-day predictions
STARLINK-1992 is classified as:


NORAD ID: 47632
Int'l Code: 2021-012N
Perigee: 355.1 km
Apogee: 358.4 km
Inclination: 53.0 °
Period: 91.5 minutes
Semi major axis: 6727 km
RCS: Unknown
Launch date: February 16, 2021
Source: United States (US)
Launch site: AIR FORCE EASTERN TEST RANGE (AFETR)
aabbcc
Your satellite tracking list
Your tracking list is empty




NASA's NSSDC Master Catalog

Two Line Element Set (TLE):
1 47632U 21012N   21109.58334491 -.00023987  00000-0 -16653-3 0  9993
2 47632  53.0453 150.8334 0002454  19.1637 301.5177 15.73251292  1765
Source of the keplerian elements: AFSPC